Location: Chervonnoye
(48.6000°N, 34.4000°E)
Time: 21:15:37
(UTC+00:00)

RS-44 - Pass Details

Date: 06 December 2021
Orbit: 1175 x 1510 km, 82.5° (Epoch: 19 January)

Event Time Altitude Azimuth Distance (km) Brightness Sun altitude
Rises 17:02:47 0° 189° (S) 4,097 ? -31.3°
Reaches altitude 10° 17:05:27 10° 190° (S) 3,115 ? -31.7°
Maximum altitude 17:12:40 84° 278° (W) 1,188 ? -32.9°
Enters shadow 17:13:16 76° 344° (NNW) 1,212 ? -33.0°
Exits shadow 17:20:59 - 10° (N) 3,508 ? -34.3°
Sets 17:22:39 0° 10° (N) 4,118 ? -34.6°
